Flag for Iran Weather past 2 weeks in Behbahan, Iran

Now
81 °F

Clear.


Feels Like: 79 °F
Forecast: 73 / 107 °F
Wind: No wind

Location: Gach Saran Du Gunbadan

Current Time: Sep 20, 2014 at 2:59:44 AM

Latest Report: Sep 20, 2014 at 1:30 AM


Visibility: 10 mi

Pressure: 29.92 "Hg

Humidity: 26%

Dew point: 43 °F

Location of BehbahanLocation

Historic Weather in Behbahan — Graph

°F

Behbahan temperature yesterday

Maximum temperature yesterday: 102 °F (at 2:30 PM)
Minimum temperature yesterday: 72 °F (at 6:30 AM)
Average temperature yesterday: 87 °F

Past Weeks' High & Low Weather Summary

 TemperatureHumidityPressure
High106 °F (Sep 5, 3:30 PM)44% (Sep 17, 5:30 AM)29.95 "Hg (Sep 17, 5:30 AM)
Low68 °F (Sep 12, 6:30 AM)1% (Sep 13, 4:30 PM)29.62 "Hg (Sep 5, 3:30 PM)
Average90 °F20%29.78 "Hg
* Reported Sep 5 3:30 AM — Sep 20 1:30 AM, Behbahan, Weather by CustomWeather, © 2014

Note: Actual official high and low records may vary slightly from our data, if they occured in-between our weather recording intervals... More about our weather records

Advertising

Behbahan weather history for previous 24 hours

 ConditionsComfort  
Time TempWeatherWind HumidityBarometerVisibility
1:30 AM
Sep 20
81 °FClear.No wind26%29.92 "Hg10 mi
11:30 PM
Sep 19
86 °FClear.No wind24%29.92 "Hg10 mi
8:30 PM91 °FSunny.No wind18%29.89 "Hg10 mi
6:30 PM97 °FSunny.No wind16%29.89 "Hg10 mi
5:30 PM100 °FSunny.5 mph13%29.89 "Hg10 mi
4:30 PM102 °FSunny.9 mph11%29.89 "Hg10 mi
2:30 PM102 °FSunny.No wind13%29.92 "Hg10 mi
1:30 PM100 °FSunny.No wind16%29.92 "Hg10 mi
11:30 AM93 °FSunny.No wind19%29.95 "Hg10 mi
10:30 AM90 °FSunny.No wind20%29.95 "Hg10 mi
9:30 AM84 °FSunny.No wind27%29.95 "Hg10 mi
8:30 AM79 °FSunny.No wind30%29.92 "Hg10 mi
7:30 AM73 °FClear.No wind31%29.92 "Hg10 mi
6:30 AM72 °FClear.No wind33%29.92 "Hg10 mi
5:30 AM73 °FClear.No wind33%29.89 "Hg10 mi
4:30 AM75 °FClear.No wind34%29.89 "Hg10 mi
3:30 AM77 °FClear.No wind34%29.92 "Hg10 mi
2:30 AM79 °FClear.No wind34%29.92 "Hg10 mi
Weather by CustomWeather, © 2014

See weather overviewHow to use our weather pages